Zurück zum Katalog

COSMOS 1375 DEB

AktivLEO
NORAD 17799·DEBRIS·🇷🇺 Russia

Gestartet Jun 6, 1982 von Plesetsk Cosmodrome

Loading…

Nächste Überflüge (nächste 24 Stunden)

TLE

AktuellSource: Space-Track

Epoche: Sep 14, 2026, 12:36 UTC

1 17799U 82055AR  26257.52569200  .00000430  00000-0  37238-3 0  9997
2 17799  65.8353  89.2230 0025303 333.3268  55.5673 13.96348674 72304

Verfolge COSMOS 1375 DEB in Echtzeit mit AllMySat

Download on the App Store